This demonstration page uses our WeatherBlox Daily Observations layout. Learn more.

39.92423, -83.80882

Hourly Observations for December 27, 2017

Temp ( °F °C ) Dew Point ( °F °C ) Humidity (%) Winds ( mph kmh ) Pressure ( in mb ) Visibility ( mi km ) Precip ( " mm )
12:56 am 00:56 Cloudy 7 -13.9 -2 -18.9 66 66 NNW 12 19 30.6 1036 10 16.0934 0 0
1:56 am 01:56 Cloudy 6 -14.4 -3 -19.4 66 66 NNW 9 15 30.6 1036 10 16.0934 0 0
2:56 am 02:56 Clear 3 -16.1 -3 -19.4 76 76 NNW 7 11 30.62 1037 10 16.0934 0 0
3:56 am 03:56 Clear 1 -17.2 -4 -20 79 79 NW 7 11 30.63 1037 10 16.0934 0 0
4:56 am 04:56 Clear 1 -17.2 -5 -20.6 75 75 NW 7 11 30.64 1038 10 16.0934 0 0
5:56 am 05:56 Clear 0 -17.8 -5 -20.6 79 79 NNW 7 11 30.65 1038 10 16.0934 0 0
6:56 am 06:56 Clear -1 -18.3 -6 -21.1 79 79 NW 6 9 30.66 1038 10 16.0934 0 0
7:56 am 07:56 Sunny -2 -18.9 -7 -21.7 79 79 NW 5 7 30.68 1039 10 16.0934 0 0
8:56 am 08:56 Sunny 4 -15.6 -2 -18.9 76 76 WNW 6 9 30.69 1039 10 16.0934 0 0
9:56 am 09:56 Sunny 7 -13.9 -2 -18.9 66 66 NNW 9 15 30.72 1040 10 16.0934 0 0
10:56 am 10:56 Sunny 9 -12.8 1 -17.2 70 70 NNW 7 11 30.72 1040 10 16.0934 0 0
11:56 am 11:56 Sunny 14 -10 3 -16.1 61 61 NW 9 15 30.71 1040 10 16.0934 0 0
12:56 pm 12:56 Mostly Cloudy 14 -10 3 -16.1 61 61 NNW 9 15 30.7 1040 10 16.0934 0 0
1:56 pm 13:56 Cloudy 18 -7.8 6 -14.4 59 59 NW 9 15 30.68 1039 10 16.0934 0 0
2:34 pm 14:34 Partly Cloudy 19 -7 3 -16 49 49 WNW 9 15 30.71 1040 10 16.0934 0 0
2:56 pm 14:56 Partly Cloudy 15 -9.4 1 -17.2 53 53 NNW 10 17 30.69 1039 10 16.0934 0 0
3:56 pm 15:56 Partly Cloudy 12 -11.1 1 -17.2 61 61 NNW 10 17 30.71 1040 10 16.0934 0 0
4:56 pm 16:56 Sunny 10 -12.2 0 -17.8 63 63 NW 8 13 30.71 1040 10 16.0934 0 0
5:56 pm 17:56 Clear 8 -13.3 1 -17.2 73 73 NNW 6 9 30.73 1041 10 16.0934 0 0
6:56 pm 18:56 Clear 7 -13.9 1 -17.2 76 76 N 5 7 30.73 1041 10 16.0934 0 0
7:56 pm 19:56 Clear 7 -13.9 1 -17.2 76 76 NNW 6 9 30.75 1041 10 16.0934 0 0
8:56 pm 20:56 Clear 7 -13.9 1 -17.2 76 76 NNW 3 6 30.73 1041 10 16.0934 0 0
9:56 pm 21:56 Clear 4 -15.6 -1 -18.3 80 80 NNW 6 9 30.74 1041 10 16.0934 0 0
10:56 pm 22:56 Clear 3 -16.1 -1 -18.3 83 83 NNW 3 6 30.73 1041 10 16.0934 0 0
11:56 pm 23:56 Clear 3 -16.1 -1 -18.3 83 83 N 6 9 30.73 1041 10 16.0934 0 0

Powered by AerisWeather